[[{"header":{"parameterUnit":"m.s-1","parameterCategory":2,"la1":30.2991,"la2":30.254,"lo1":-89.0895,"lo2":-89.0444,"dy":0.0017,"dx":0.0017,"nx":28,"ny":28,"refTime":"2023-09-18T09:00:00:Z","depth":"0","parameterNumber":2,"parameterNumberName":"U-component_of_CURRENTS"},"data":[0,0,0,0,0,0,0,0,0,0,0,0,0,0,0,0,0,0,0,0,0,0,0,0,0,0,0,0,0,0,0,0,0,0,0,0,0,0,0,0,0,0,0,0,0,0,0,0,0,0,0,0,0,0,0,0,0,0,0.1496,0.1497,0,0.1511,0.1511,0.1511,0.1523,0.1523,0.1524,0.1524,0.1527,0.1527,0.1526,0,0,0,0,0,0,0,0,0,0,0,0,0,0.1459,0.146,0.1496,0.1497,0.1497,0.1511,0.1511,0.1511,0.1523,0.1523,0.1524,0.1524,0.1527,0.1527,0.1526,0,0,0,0,0,0,0,0,0,0,0,0,0,0.1473,0.146,0.1496,0.1506,0.1508,0.1511,0.1511,0.1511,0.1523,0.1523,0.1524,0.1524,0.1527,0.1527,0.1526,0.1514,0,0,0.1525,0.1525,0,0,0,0,0,0,0,0,0.1472,0.1474,0.1505,0.1506,0.1507,0.1518,0.1499,0.1512,0.1523,0.1515,0.1524,0.1525,0.1524,0.1524,0.1522,0.1514,0.1514,0.1525,0.1525,0.1525,0.1525,0,0,0,0,0,0,0,0.1471,0.1473,0.15,0.1505,0.1507,0.1504,0.1506,0.1501,0.1514,0.1516,0.1517,0.1522,0.1524,0.1523,0.1522,0.1514,0.1525,0.1525,0.1525,0.1525,0.155,0.155,0,0,0,0,0,0,0.1474,0.1472,0.1499,0.1501,0.1493,0.1504,0.1507,0.1512,0.1515,0.1516,0.1522,0.1523,0.1523,0.1523,0.1523,0.1549,0.1525,0.1524,0.1524,0.1549,0.155,0.1551,0,0,0,0,0,0,0.1473,0.1476,0.1499,0.1488,0.1491,0.1505,0.151,0.1512,0.1515,0.152,0.1521,0.1524,0.1523,0.1523,0.1528,0.1548,0.1524,0.1524,0.1548,0.1549,0.155,0.1576,0,0,0,0,0,0,0.1472,0.1476,0.1479,0.1489,0.1492,0.1508,0.151,0.1512,0.1518,0.152,0.1522,0.1523,0.1524,0.1528,0.1527,0.1547,0.1524,0.1547,0.1548,0.155,0.1574,0.1579,0.1582,0,0,0,0,0,0.1471,0.1475,0.1479,0.1483,0.1497,0.1509,0.151,0.152,0.1518,0.1523,0.1525,0.1523,0.1539,0.1528,0.1527,0.1547,0.1546,0.1548,0.155,0.1573,0.1578,0.1582,0,0,0,0,0,0,0.146,0.1477,0.1482,0.1491,0.1503,0.1512,0.1517,0.1519,0.1523,0.1524,0.1524,0.1525,0.1542,0.1537,0.1526,0.1561,0.1546,0.1547,0.1564,0.1568,0.1572,0.1576,0.1523,0,0,0,0,0,0.146,0.1467,0.1483,0.149,0.1497,0.1505,0.151,0.1517,0.1523,0.1525,0.1527,0.1534,0.1548,0.1551,0.1559,0.1566,0.1593,0.1583,0.1587,0.159,0.1593,0.1642,0.1651,0.1557,0.1557,0.1557,0,0,0.1456,0.1467,0.1471,0.1488,0.1496,0.1509,0.1509,0.152,0.1532,0.1524,0.1536,0.1544,0.1553,0.1573,0.158,0.157,0.1636,0.1592,0.1595,0.1597,0.1645,0.1654,0.1662,0.1559,0.1558,0.1558,0,0,0.1456,0.1465,0.1473,0.1485,0.1503,0.1511,0.1515,0.1527,0.1536,0.1545,0.1554,0.1572,0.1577,0.1598,0.1607,0.1633,0.1656,0.1638,0.1657,0.1704,0.1713,0.172,0.1792,0.1806,0.1638,0.1638,0.1638,0,0.1452,0.1467,0.1477,0.1491,0.1504,0.1513,0.1527,0.1536,0.1548,0.1562,0.1553,0.1591,0.1593,0.1635,0.1646,0.1643,0.168,0.1638,0.171,0.1717,0.1725,0.1797,0.1812,0.164,0.164,0.1639,0.1639,0,0.1461,0.1475,0.1482,0.1504,0.1517,0.1531,0.155,0.1565,0.1572,0.1583,0.162,0.1628,0.1656,0.1663,0.1658,0.1715,0.1732,0.1711,0.1698,0.1736,0.181,0.1825,0.1642,0.1641,0.1641,0.164,0,0,0.1446,0.1482,0.1484,0.1501,0.1527,0.154,0.1567,0.1597,0.1627,0.1634,0.1675,0.1694,0.1704,0.1716,0.1725,0.1756,0.1842,0.1753,0.1755,0.1826,0.1975,0.2021,0.2042,0.1834,0.1836,0.1838,0.2016,0,0.1452,0.148,0.1497,0.1526,0.1544,0.1568,0.1594,0.1623,0.1651,0.1691,0.1711,0.1751,0.1725,0.1751,0.1778,0.183,0.1878,0.1797,0.1927,0.1931,0.1968,0.2059,0.1996,0.2151,0.2031,0.2033,0.2035,0,0.1454,0.1477,0.1505,0.1549,0.1559,0.1578,0.1636,0.1661,0.1719,0.1743,0.1784,0.1807,0.1868,0.1832,0.1944,0.1896,0.1938,0.1969,0.1976,0.2018,0.2005,0.2089,0.2183,0.2107,0.2058,0.2056,0.2054,0,0.144,0.148,0.1505,0.1518,0.1568,0.1592,0.162,0.1677,0.1713,0.1788,0.1835,0.1893,0.1953,0.1996,0.2065,0.2014,0.2195,0.2133,0.222,0.2225,0.2196,0.2195,0.2229,0.2214,0.2214,0.2213,0.2213,0,0.1437,0.1456,0.1503,0.1516,0.1549,0.159,0.1636,0.1678,0.1754,0.1821,0.1863,0.1947,0.1996,0.2098,0.2121,0.2248,0.2252,0.2258,0.2281,0.2207,0.2205,0.2155,0.2117,0.222,0.2218,0.2217,0.2216,0,0.1411,0.1443,0.1472,0.1526,0.1541,0.1564,0.1632,0.1678,0.1757,0.1856,0.189,0.202,0.2175,0.2241,0.2358,0.2356,0.2392,0.248,0.2409,0.242,0.2398,0.2365,0.2374,0.2297,0.2603,0.2605,0.2607,0,0.1399,0.1413,0.1461,0.1481,0.1504,0.1546,0.1581,0.166,0.1728,0.1911,0.1973,0.2157,0.2281,0.2489,0.2555,0.2657,0.2518,0.2627,0.2502,0.2426,0.2405,0.2277,0.2199,0.2488,0.2489,0.2489,0.249,0,0.1373,0.1391,0.1415,0.1451,0.1488,0.1524,0.1595,0.1643,0.1773,0.1879,0.2056,0.2172,0.2425,0.2527,0.268,0.2711,0.2503,0.2646,0.2571,0.2341,0.2198,0.2124,0.2358,0.2496,0.2495,0.2495,0.2494,0.2494,0.1347,0.1354,0.1387,0.1417,0.1457,0.15,0.1518,0.1629,0.1728,0.1887,0.2049,0.2205,0.2411,0.2636,0.2658,0.2665,0.2607,0.2558,0.2539,0.2426,0.2297,0.2571,0.2723,0.2724,0.2724,0.2725,0.2725,0,0.1308,0.1326,0.1355,0.1383,0.1402,0.1445,0.1526,0.155,0.1654,0.1848,0.1991,0.2214,0.2356,0.2491,0.263,0.2552,0.238,0.2463,0.2231,0.2166,0.2429,0.2367,0.2441,0.2441,0.2441,0.2441,0.2441,0.2441,0.129,0.1296,0.1311,0.1317,0.1343,0.1349,0.1381,0.1445,0.1564,0.1733,0.1881,0.2034,0.2311,0.2514,0.2515,0.2443,0.22,0.2142,0.2089,0.2243,0.2247,0.225,0.218,0.2214,0.2213,0.1709,0.1705,0.1703]},{"header":{"parameterUnit":"m.s-1","parameterCategory":2,"la1":30.2991,"la2":30.254,"lo1":-89.0895,"lo2":-89.0444,"dy":0.0017,"dx":0.0017,"nx":28,"ny":28,"refTime":"2023-09-18T09:00:00:Z","depth":"0","parameterNumber":3,"parameterNumberName":"V-component_of_CURRENTS"},"data":[0,0,0,0,0,0,0,0,0,0,0,0,0,0,0,0,0,0,0,0,0,0,0,0,0,0,0,0,0,0,0,0,0,0,0,0,0,0,0,0,0,0,0,0,0,0,0,0,0,0,0,0,0,0,0,0,0,0,-0.0177,-0.0178,0,-0.0244,-0.0245,-0.0246,-0.0292,-0.0292,-0.0292,-0.0293,-0.0376,-0.0377,-0.0379,0,0,0,0,0,0,0,0,0,0,0,0,0,-0.012,-0.0121,-0.0177,-0.0178,-0.0178,-0.0244,-0.0245,-0.0246,-0.0292,-0.0292,-0.0292,-0.0293,-0.0375,-0.0377,-0.038,0,0,0,0,0,0,0,0,0,0,0,0,0,-0.0162,-0.0121,-0.0177,-0.0209,-0.0212,-0.0244,-0.0245,-0.0246,-0.0292,-0.0292,-0.0293,-0.0293,-0.0374,-0.0377,-0.038,-0.0389,0,0,-0.0389,-0.039,0,0,0,0,0,0,0,0,-0.016,-0.0164,-0.0203,-0.0207,-0.0211,-0.026,-0.0255,-0.0294,-0.0292,-0.0262,-0.0293,-0.0293,-0.0338,-0.0344,-0.0356,-0.0392,-0.0396,-0.0389,-0.0391,-0.0392,-0.0393,0,0,0,0,0,0,0,-0.0157,-0.0162,-0.0204,-0.0204,-0.0209,-0.0231,-0.0237,-0.0263,-0.0297,-0.0265,-0.0268,-0.0275,-0.034,-0.0353,-0.0358,-0.0397,-0.0389,-0.0391,-0.0393,-0.0394,-0.0464,-0.0464,0,0,0,0,0,0,-0.0145,-0.0159,-0.0202,-0.0206,-0.0185,-0.0231,-0.0238,-0.0244,-0.0297,-0.0305,-0.0274,-0.0277,-0.0348,-0.0354,-0.0361,-0.0376,-0.0392,-0.0395,-0.0396,-0.0464,-0.0464,-0.0464,0,0,0,0,0,0,-0.0144,-0.0148,-0.0199,-0.0184,-0.0192,-0.0232,-0.0238,-0.0245,-0.0259,-0.0304,-0.0312,-0.0281,-0.0348,-0.0357,-0.0384,-0.0379,-0.0396,-0.0399,-0.0464,-0.0464,-0.0464,-0.0404,0,0,0,0,0,0,-0.0142,-0.0147,-0.0147,-0.0183,-0.0192,-0.0214,-0.0237,-0.0246,-0.0262,-0.0266,-0.0312,-0.032,-0.0349,-0.038,-0.0387,-0.0383,-0.0401,-0.0464,-0.0464,-0.0464,-0.0406,-0.0402,-0.0399,0,0,0,0,0,-0.014,-0.0136,-0.0146,-0.0151,-0.019,-0.0214,-0.0221,-0.0251,-0.0262,-0.0266,-0.0298,-0.0319,-0.0387,-0.0382,-0.0391,-0.0388,-0.0464,-0.0464,-0.0464,-0.0407,-0.0403,-0.0399,0,0,0,0,0,0,-0.0112,-0.0142,-0.0153,-0.0159,-0.0183,-0.0221,-0.0227,-0.0247,-0.0275,-0.0277,-0.0319,-0.033,-0.0354,-0.038,-0.0373,-0.041,-0.0429,-0.0431,-0.0383,-0.0379,-0.0376,-0.0358,-0.0403,0,0,0,0,0,-0.0104,-0.0109,-0.0141,-0.0145,-0.0155,-0.0189,-0.0202,-0.0221,-0.0251,-0.0264,-0.0296,-0.0331,-0.0361,-0.0376,-0.0408,-0.0424,-0.0446,-0.043,-0.0426,-0.0423,-0.0416,-0.0447,-0.0445,-0.0465,-0.0465,-0.0465,0,0,-0.0095,-0.0111,-0.0114,-0.0139,-0.0159,-0.0168,-0.0198,-0.0213,-0.022,-0.0268,-0.0285,-0.032,-0.0364,-0.0385,-0.0398,-0.0405,-0.0428,-0.0424,-0.042,-0.0415,-0.0447,-0.0445,-0.0443,-0.0466,-0.0466,-0.0465,0,0,-0.0076,-0.0091,-0.0089,-0.0104,-0.0129,-0.015,-0.0151,-0.0186,-0.0201,-0.0221,-0.0259,-0.0288,-0.0333,-0.0362,-0.0383,-0.038,-0.0411,-0.0393,-0.0357,-0.0388,-0.0386,-0.0384,-0.04,-0.0401,-0.0388,-0.0388,-0.0388,0,-0.0063,-0.0066,-0.0092,-0.0093,-0.01,-0.0137,-0.0135,-0.0155,-0.0194,-0.0201,-0.0218,-0.0283,-0.032,-0.0346,-0.0347,-0.037,-0.0389,-0.0366,-0.0381,-0.0381,-0.038,-0.0397,-0.0399,-0.0385,-0.0386,-0.0386,-0.0386,0,-0.0045,-0.0047,-0.0046,-0.0058,-0.0068,-0.0072,-0.01,-0.0111,-0.0132,-0.0154,-0.0182,-0.0233,-0.027,-0.0289,-0.0317,-0.0334,-0.0348,-0.0373,-0.0386,-0.0374,-0.0393,-0.0396,-0.0381,-0.0382,-0.0383,-0.0384,0,0,-0.0015,-0.003,-0.0029,-0.0023,-0.0048,-0.0051,-0.0058,-0.0074,-0.0072,-0.0113,-0.0116,-0.0173,-0.0199,-0.0225,-0.0267,-0.0293,-0.0308,-0.0326,-0.0329,-0.0331,-0.0363,-0.0355,-0.0358,-0.0335,-0.0336,-0.0336,-0.0374,0,0.0008,0.0019,0.0003,0.0018,0.0023,-0.0004,-0.0004,-0.0021,-0.0044,-0.0056,-0.0107,-0.013,-0.0175,-0.019,-0.0224,-0.0289,-0.0313,-0.0295,-0.0384,-0.0386,-0.0372,-0.036,-0.0341,-0.0372,-0.0376,-0.0377,-0.0377,0,0.0031,0.0037,0.0055,0.0064,0.0064,0.0068,0.0068,0.0061,0.0031,0.0015,-0.0017,-0.0058,-0.0101,-0.0143,-0.0234,-0.022,-0.0283,-0.0334,-0.0337,-0.0352,-0.0383,-0.0388,-0.0377,-0.0516,-0.0382,-0.0381,-0.0381,0,0.007,0.0077,0.0097,0.0098,0.0097,0.0106,0.0102,0.0083,0.0091,0.0058,0.0063,-0.0002,-0.0022,-0.0113,-0.0211,-0.0226,-0.0307,-0.0345,-0.0396,-0.0396,-0.0408,-0.0408,-0.0532,-0.0408,-0.0408,-0.0408,-0.0408,0,0.0103,0.012,0.0119,0.0131,0.0164,0.0146,0.0172,0.0159,0.0153,0.0185,0.0104,0.0121,-0.0015,-0.0075,-0.0183,-0.0283,-0.0286,-0.0382,-0.0405,-0.0386,-0.0384,-0.0529,-0.0615,-0.041,-0.0409,-0.0409,-0.0409,0,0.0142,0.0138,0.0167,0.0177,0.0183,0.0205,0.0223,0.0245,0.0228,0.0267,0.0265,0.0215,0.0148,0.0012,-0.0124,-0.0231,-0.0418,-0.0381,-0.0339,-0.0356,-0.0537,-0.0619,-0.0764,-0.0822,-0.0446,-0.0446,-0.0446,0,0.0163,0.0181,0.0205,0.023,0.0237,0.0262,0.0287,0.0281,0.0317,0.0343,0.038,0.0327,0.033,0.0126,-0.0076,-0.0259,-0.0403,-0.0378,-0.0411,-0.0537,-0.0647,-0.0708,-0.0752,-0.0404,-0.0404,-0.0403,-0.0403,0,0.0209,0.0217,0.0242,0.0288,0.0322,0.0363,0.0403,0.0447,0.0469,0.0519,0.0592,0.0598,0.0417,0.0257,-0.0012,-0.016,-0.0476,-0.0378,-0.0529,-0.0636,-0.0691,-0.076,-0.0385,-0.0401,-0.0401,-0.0401,-0.0401,-0.0401,0.0248,0.0275,0.0308,0.0355,0.0401,0.0471,0.0524,0.0592,0.068,0.0785,0.0775,0.082,0.0542,0.0189,-0.003,-0.0443,-0.0457,-0.0566,-0.0657,-0.0708,-0.0765,-0.037,-0.04,-0.04,-0.04,-0.0401,-0.0401,0,0.0294,0.0324,0.0373,0.0434,0.0499,0.051,0.0612,0.0685,0.0822,0.0923,0.1004,0.0906,0.0559,0.0174,-0.0367,-0.0661,-0.0787,-0.084,-0.0941,-0.0973,-0.0638,-0.0635,-0.0692,-0.0692,-0.0692,-0.0692,-0.0691,-0.0691,0.0322,0.0376,0.0399,0.051,0.0561,0.0661,0.0731,0.0855,0.0951,0.1094,0.1141,0.1147,0.0853,-0.0127,-0.0821,-0.0992,-0.1202,-0.1243,-0.1361,-0.1155,-0.1137,-0.112,-0.1138,-0.1299,-0.13,-0.1644,-0.1648,-0.1651]}],[{"header":{"parameterUnit":"m.s-1","parameterCategory":2,"la1":30.2991,"la2":30.254,"lo1":-89.0895,"lo2":-89.0444,"dy":0.0017,"dx":0.0017,"nx":28,"ny":28,"refTime":"2023-09-18T09:00:00:Z","depth":"2","parameterNumber":2,"parameterNumberName":"U-component_of_CURRENTS"},"data":[0,0,0,0,0,0,0,0,0,0,0,0,0,0,0,0,0,0,0,0,0,0,0,0,0,0,0,0,0,0,0,0,0,0,0,0,0,0,0,0,0,0,0,0,0,0,0,0,0,0,0,0,0,0,0,0,0,0,0.1518,0.1519,0,0.1533,0.1533,0.1533,0.1547,0.1547,0.1548,0.1548,0.1556,0.1556,0.1556,0,0,0,0,0,0,0,0,0,0,0,0,0,0.1482,0.1482,0.1518,0.1519,0.1519,0.1533,0.1533,0.1533,0.1547,0.1547,0.1548,0.1548,0.1556,0.1556,0.1556,0,0,0,0,0,0,0,0,0,0,0,0,0,0.1495,0.1482,0.1518,0.1529,0.153,0.1533,0.1533,0.1533,0.1547,0.1547,0.1548,0.1548,0.1556,0.1556,0.1556,0.1544,0,0,0.1555,0.1555,0,0,0,0,0,0,0,0,0.1494,0.1496,0.1527,0.1528,0.153,0.154,0.1523,0.1537,0.1547,0.1538,0.1548,0.1549,0.1551,0.1552,0.155,0.1544,0.1545,0.1555,0.1555,0.1555,0.1555,0,0,0,0,0,0,0,0.1493,0.1496,0.1522,0.1528,0.1529,0.1526,0.1529,0.1526,0.154,0.1539,0.1541,0.1545,0.1552,0.155,0.1551,0.1545,0.1555,0.1555,0.1555,0.1555,0.1595,0.1596,0,0,0,0,0,0,0.1496,0.1495,0.1522,0.1523,0.1515,0.1527,0.1529,0.1535,0.154,0.1542,0.1545,0.1546,0.155,0.1551,0.1551,0.158,0.1555,0.1555,0.1555,0.1593,0.1595,0.1596,0,0,0,0,0,0,0.1495,0.1499,0.1521,0.1511,0.1514,0.1527,0.1533,0.1535,0.154,0.1545,0.1547,0.1549,0.1551,0.1551,0.1558,0.1579,0.1555,0.1555,0.1592,0.1594,0.1596,0.161,0,0,0,0,0,0,0.1494,0.1498,0.1502,0.1511,0.1514,0.1531,0.1533,0.1535,0.1543,0.1544,0.1549,0.155,0.1551,0.1558,0.1558,0.1578,0.1555,0.1591,0.1593,0.1595,0.1608,0.1612,0.1616,0,0,0,0,0,0.1493,0.1498,0.1502,0.1505,0.152,0.1532,0.1533,0.1543,0.1542,0.1548,0.1551,0.155,0.1573,0.1558,0.1558,0.1579,0.159,0.1592,0.1595,0.1607,0.1612,0.1616,0,0,0,0,0,0,0.1484,0.15,0.1505,0.1515,0.1526,0.1535,0.154,0.1543,0.1549,0.1551,0.1552,0.1553,0.1573,0.1572,0.1556,0.16,0.1586,0.1589,0.1596,0.16,0.1604,0.1607,0.1555,0,0,0,0,0,0.1484,0.1492,0.1507,0.1515,0.1521,0.1529,0.1534,0.1542,0.1549,0.1552,0.1555,0.1565,0.1582,0.1586,0.1598,0.1607,0.1635,0.1626,0.163,0.1633,0.1638,0.1689,0.1698,0.1605,0.1605,0.1605,0,0,0.1481,0.1492,0.1496,0.1513,0.1521,0.1534,0.1533,0.1545,0.1557,0.1551,0.1565,0.1575,0.1588,0.161,0.1619,0.161,0.168,0.1636,0.1639,0.1642,0.1693,0.1702,0.171,0.1606,0.1606,0.1606,0,0,0.1482,0.1491,0.15,0.1511,0.1529,0.1537,0.1542,0.1554,0.1563,0.1573,0.1584,0.1604,0.1614,0.1636,0.1646,0.1675,0.1699,0.1684,0.1701,0.1751,0.1759,0.1766,0.1833,0.1846,0.1684,0.1684,0.1684,0,0.1478,0.1494,0.1504,0.1518,0.153,0.154,0.1554,0.1563,0.1577,0.159,0.1583,0.1626,0.163,0.1672,0.1684,0.1684,0.1721,0.1679,0.1756,0.1763,0.177,0.1837,0.1851,0.1685,0.1685,0.1685,0.1685,0,0.1488,0.1502,0.1509,0.1531,0.1545,0.1558,0.1577,0.1593,0.1601,0.1612,0.165,0.1661,0.1691,0.1699,0.1696,0.1755,0.177,0.1755,0.1741,0.1781,0.1849,0.1864,0.1686,0.1686,0.1686,0.1685,0,0,0.1474,0.1509,0.1511,0.1528,0.1555,0.1567,0.1594,0.1625,0.1653,0.1663,0.1703,0.1725,0.1735,0.175,0.1759,0.1793,0.1876,0.1794,0.1796,0.1856,0.2009,0.1994,0.2009,0.1874,0.1876,0.1878,0.2044,0,0.1479,0.1508,0.1525,0.1553,0.1571,0.1595,0.1621,0.165,0.1677,0.1717,0.1738,0.1779,0.1755,0.1782,0.181,0.1866,0.1912,0.1834,0.1966,0.1971,0.1948,0.2024,0.1849,0.1979,0.2058,0.2061,0.2062,0,0.1481,0.1504,0.1532,0.1575,0.1586,0.1605,0.1661,0.1687,0.1743,0.1767,0.1808,0.1831,0.1894,0.1861,0.1974,0.1928,0.1971,0.2004,0.2011,0.1999,0.1981,0.195,0.2003,0.2087,0.2085,0.2083,0.2081,0,0.1467,0.1508,0.1532,0.1545,0.1594,0.1617,0.1646,0.1701,0.1737,0.1811,0.1858,0.1915,0.1979,0.2022,0.209,0.2044,0.222,0.2166,0.2197,0.2198,0.2076,0.2061,0.2249,0.2249,0.2248,0.2248,0.2247,0,0.1464,0.1484,0.1529,0.1543,0.1575,0.1615,0.1661,0.1702,0.1777,0.1845,0.1886,0.1969,0.2023,0.2122,0.2143,0.2238,0.2273,0.2226,0.2244,0.2079,0.2063,0.2164,0.2152,0.2254,0.2253,0.2251,0.225,0,0.1439,0.147,0.1499,0.1552,0.1567,0.159,0.1658,0.1703,0.1782,0.1881,0.1916,0.2045,0.2181,0.224,0.2356,0.2335,0.2403,0.2425,0.2239,0.223,0.2331,0.2318,0.247,0.2471,0.2472,0.2472,0.2473,0,0.1427,0.144,0.1489,0.1508,0.153,0.1572,0.1607,0.1686,0.1753,0.1937,0.1999,0.2165,0.2257,0.2422,0.2442,0.25,0.2497,0.2359,0.2219,0.2355,0.2357,0.2342,0.2328,0.2078,0.2076,0.2074,0.2072,0,0.1402,0.1419,0.1444,0.1478,0.1514,0.155,0.1622,0.167,0.18,0.1895,0.2059,0.2146,0.2327,0.2315,0.24,0.2397,0.2323,0.2316,0.2534,0.204,0.1997,0.1994,0.1992,0.2052,0.2054,0.2055,0.2056,0.2057,0.1378,0.1384,0.1416,0.1446,0.1485,0.1527,0.1547,0.1642,0.1728,0.1857,0.2012,0.2085,0.2159,0.2191,0.217,0.216,0.2296,0.2167,0.2169,0.2175,0.2091,0.2049,0.2101,0.2103,0.2105,0.2107,0.2108,0,0.134,0.1357,0.1385,0.1413,0.1431,0.1474,0.1554,0.1569,0.1644,0.1775,0.1872,0.1794,0.1816,0.1886,0.1848,0.1871,0.1803,0.1788,0.1666,0.1691,0.1711,0.1596,0.148,0.1477,0.1475,0.1473,0,0,0.1322,0.1328,0.1342,0.1348,0.1373,0.1379,0.1411,0.1447,0.1523,0.1549,0.1578,0.1725,0.1839,0.1618,0.162,0.1541,0.1591,0.1489,0.2004,0.1887,0.1903,0.1959,0.1815,0,0,0,0,0]},{"header":{"parameterUnit":"m.s-1","parameterCategory":2,"la1":30.2991,"la2":30.254,"lo1":-89.0895,"lo2":-89.0444,"dy":0.0017,"dx":0.0017,"nx":28,"ny":28,"refTime":"2023-09-18T09:00:00:Z","depth":"2","parameterNumber":3,"parameterNumberName":"V-component_of_CURRENTS"},"data":[0,0,0,0,0,0,0,0,0,0,0,0,0,0,0,0,0,0,0,0,0,0,0,0,0,0,0,0,0,0,0,0,0,0,0,0,0,0,0,0,0,0,0,0,0,0,0,0,0,0,0,0,0,0,0,0,0,0,-0.0112,-0.0113,0,-0.0177,-0.0178,-0.0179,-0.0222,-0.0222,-0.0222,-0.0222,-0.0305,-0.0307,-0.0309,0,0,0,0,0,0,0,0,0,0,0,0,0,-0.0059,-0.006,-0.0112,-0.0113,-0.0114,-0.0177,-0.0178,-0.0179,-0.0222,-0.0222,-0.0222,-0.0222,-0.0305,-0.0307,-0.0309,0,0,0,0,0,0,0,0,0,0,0,0,0,-0.0099,-0.006,-0.0112,-0.0142,-0.0146,-0.0177,-0.0178,-0.018,-0.0222,-0.0222,-0.0222,-0.0223,-0.0304,-0.0307,-0.031,-0.0321,0,0,-0.0319,-0.032,0,0,0,0,0,0,0,0,-0.0097,-0.0101,-0.0137,-0.014,-0.0144,-0.0191,-0.019,-0.0228,-0.0221,-0.0193,-0.0222,-0.0223,-0.0268,-0.0274,-0.0286,-0.0325,-0.0329,-0.0319,-0.0321,-0.0322,-0.0323,0,0,0,0,0,0,0,-0.0094,-0.0099,-0.0139,-0.0138,-0.0142,-0.0164,-0.017,-0.0197,-0.0229,-0.0196,-0.0199,-0.0205,-0.0271,-0.0283,-0.0289,-0.033,-0.0319,-0.0322,-0.0324,-0.0325,-0.0399,-0.04,0,0,0,0,0,0,-0.0083,-0.0096,-0.0137,-0.0141,-0.012,-0.0165,-0.0171,-0.0176,-0.0228,-0.0236,-0.0205,-0.0207,-0.0278,-0.0285,-0.0292,-0.0307,-0.0322,-0.0325,-0.0327,-0.0399,-0.0399,-0.04,0,0,0,0,0,0,-0.0081,-0.0086,-0.0134,-0.012,-0.0127,-0.0165,-0.017,-0.0177,-0.0192,-0.0235,-0.0243,-0.0212,-0.0278,-0.0287,-0.0316,-0.0311,-0.0326,-0.0329,-0.0399,-0.0399,-0.0399,-0.0339,0,0,0,0,0,0,-0.008,-0.0085,-0.0084,-0.0119,-0.0128,-0.015,-0.017,-0.0178,-0.0195,-0.0198,-0.0244,-0.0252,-0.0279,-0.0311,-0.0319,-0.0315,-0.0332,-0.0399,-0.0399,-0.0399,-0.0341,-0.0337,-0.0334,0,0,0,0,0,-0.0077,-0.0075,-0.0084,-0.0089,-0.0126,-0.015,-0.0156,-0.0185,-0.0195,-0.0199,-0.023,-0.0251,-0.0319,-0.0314,-0.0323,-0.032,-0.0399,-0.0399,-0.0399,-0.0343,-0.0338,-0.0335,0,0,0,0,0,0,-0.0053,-0.008,-0.0091,-0.0097,-0.0119,-0.0156,-0.0163,-0.0181,-0.0209,-0.0212,-0.0252,-0.0262,-0.0287,-0.0313,-0.0306,-0.0344,-0.0363,-0.0365,-0.0316,-0.0313,-0.0309,-0.0293,-0.0334,0,0,0,0,0,-0.0046,-0.005,-0.0081,-0.0085,-0.0094,-0.0127,-0.014,-0.0158,-0.0187,-0.02,-0.0231,-0.0265,-0.0295,-0.0311,-0.0343,-0.036,-0.0382,-0.0366,-0.0363,-0.036,-0.0354,-0.0382,-0.038,-0.0401,-0.0401,-0.0401,0,0,-0.0038,-0.0052,-0.0056,-0.008,-0.0099,-0.0108,-0.0136,-0.0151,-0.0158,-0.0204,-0.0222,-0.0255,-0.0299,-0.032,-0.0333,-0.0341,-0.0365,-0.036,-0.0357,-0.0353,-0.0382,-0.038,-0.0378,-0.0401,-0.0401,-0.0401,0,0,-0.0022,-0.0036,-0.0034,-0.0049,-0.0073,-0.0092,-0.0094,-0.0128,-0.0142,-0.0163,-0.0198,-0.0226,-0.0272,-0.0299,-0.0319,-0.0317,-0.0347,-0.0331,-0.0298,-0.0325,-0.0323,-0.0322,-0.0339,-0.0339,-0.0327,-0.0327,-0.0327,0,-0.001,-0.0013,-0.0038,-0.0039,-0.0046,-0.0081,-0.0079,-0.0099,-0.0137,-0.0144,-0.0161,-0.0224,-0.026,-0.0285,-0.0285,-0.0308,-0.0326,-0.0305,-0.0319,-0.0318,-0.0318,-0.0336,-0.0337,-0.0324,-0.0324,-0.0324,-0.0325,0,0.0005,0.0003,0.0004,-0.0007,-0.0018,-0.0022,-0.0049,-0.006,-0.0079,-0.01,-0.0128,-0.0177,-0.0212,-0.023,-0.0258,-0.0274,-0.0288,-0.031,-0.0323,-0.0312,-0.0332,-0.0334,-0.032,-0.0321,-0.0322,-0.0322,0,0,0.0032,0.0018,0.0018,0.0024,0.0001,-0.0003,-0.001,-0.0025,-0.0023,-0.0063,-0.0065,-0.012,-0.0145,-0.017,-0.0209,-0.0234,-0.0247,-0.0266,-0.0269,-0.0271,-0.03,-0.0298,-0.0301,-0.0272,-0.0272,-0.0272,-0.0312,0,0.0052,0.0062,0.0047,0.0061,0.0065,0.004,0.004,0.0024,0.0002,-0.0009,-0.0057,-0.0079,-0.0122,-0.0136,-0.0168,-0.0229,-0.0253,-0.0234,-0.0321,-0.0323,-0.0314,-0.0304,-0.0283,-0.0316,-0.0314,-0.0315,-0.0315,0,0.0073,0.0078,0.0094,0.0103,0.0104,0.0106,0.0107,0.01,0.0074,0.0059,0.0028,-0.001,-0.0051,-0.0091,-0.0178,-0.0163,-0.0224,-0.0273,-0.0276,-0.0296,-0.0326,-0.0331,-0.0321,-0.032,-0.032,-0.0319,-0.0319,0,0.0108,0.0114,0.0133,0.0133,0.0133,0.0141,0.0138,0.0121,0.013,0.0099,0.0105,0.0043,0.0024,-0.0063,-0.0155,-0.017,-0.0248,-0.0283,-0.0338,-0.0338,-0.0349,-0.035,-0.0344,-0.0343,-0.0343,-0.0343,-0.0343,0,0.0137,0.0153,0.0152,0.0164,0.0194,0.0178,0.0203,0.0191,0.0187,0.0219,0.0143,0.016,0.0031,-0.0026,-0.013,-0.0229,-0.0228,-0.0326,-0.0348,-0.0327,-0.0326,-0.0355,-0.0356,-0.0345,-0.0344,-0.0344,-0.0344,0,0.0171,0.0168,0.0195,0.0205,0.0211,0.0232,0.025,0.0272,0.0257,0.0296,0.0295,0.0249,0.018,0.0051,-0.0081,-0.018,-0.0289,-0.0327,-0.0287,-0.0303,-0.0371,-0.0368,-0.0398,-0.0398,-0.0399,-0.0399,-0.0399,0,0.0189,0.0206,0.023,0.0253,0.026,0.0284,0.0309,0.0305,0.0341,0.0368,0.0403,0.0349,0.0332,0.0134,-0.0052,-0.0231,-0.0263,-0.0333,-0.0364,-0.0357,-0.0376,-0.0373,-0.037,-0.0355,-0.0355,-0.0355,-0.0354,0,0.023,0.0238,0.0261,0.0305,0.0338,0.0378,0.0416,0.0459,0.0483,0.0522,0.0581,0.0566,0.0388,0.0217,-0.0037,-0.0162,-0.0307,-0.0335,-0.0341,-0.034,-0.0319,-0.0336,-0.0335,-0.0353,-0.0353,-0.0353,-0.0353,-0.0353,0.0264,0.0289,0.032,0.0364,0.0408,0.0476,0.0524,0.0581,0.0656,0.0726,0.0716,0.07,0.0489,0.0173,-0.0048,-0.0283,-0.0282,-0.0372,-0.0371,-0.0372,-0.0355,-0.0335,-0.0369,-0.0369,-0.0369,-0.0369,-0.037,0,0.0304,0.0331,0.0378,0.0434,0.0495,0.0508,0.0605,0.066,0.0766,0.0817,0.0852,0.0681,0.0471,0.023,-0.0114,-0.0328,-0.0355,-0.0393,-0.0381,-0.038,-0.038,-0.0365,-0.0381,-0.0382,-0.0382,-0.0383,0,0,0.0328,0.0377,0.0398,0.0499,0.0546,0.0637,0.0702,0.0789,0.0847,0.0901,0.0897,0.0838,0.0552,0.0305,0.0014,-0.018,-0.0235,-0.0223,-0.0191,-0.0143,-0.0141,-0.0345,-0.0317,0,0,0,0,0]}],[{"header":{"parameterUnit":"m.s-1","parameterCategory":2,"la1":30.2991,"la2":30.254,"lo1":-89.0895,"lo2":-89.0444,"dy":0.0017,"dx":0.0017,"nx":28,"ny":28,"refTime":"2023-09-18T09:00:00:Z","depth":"4","parameterNumber":2,"parameterNumberName":"U-component_of_CURRENTS"},"data":[0,0,0,0,0,0,0,0,0,0,0,0,0,0,0,0,0,0,0,0,0,0,0,0,0,0,0,0,0,0,0,0,0,0,0,0,0,0,0,0,0,0,0,0,0,0,0,0,0,0,0,0,0,0,0,0,0,0,0.1062,0.1063,0,0.11,0.11,0.11,0.1141,0.1142,0.1143,0.1144,0.1176,0.1176,0.1176,0,0,0,0,0,0,0,0,0,0,0,0,0,0.1006,0.1007,0.1062,0.1063,0.1063,0.11,0.11,0.11,0.1141,0.1142,0.1143,0.1144,0.1176,0.1176,0.1176,0,0,0,0,0,0,0,0,0,0,0,0,0,0.1034,0.1007,0.1062,0.1089,0.1092,0.11,0.11,0.1101,0.1141,0.1142,0.1143,0.1144,0.1176,0.1176,0.1176,0.1155,0,0,0.1177,0.1177,0,0,0,0,0,0,0,0,0.1032,0.1036,0.1085,0.1088,0.1091,0.1119,0.1092,0.1119,0.1141,0.1121,0.1144,0.1145,0.1156,0.1158,0.116,0.1156,0.1158,0.1177,0.1177,0.1177,0.1177,0,0,0,0,0,0,0,0.1031,0.1034,0.1075,0.1085,0.1089,0.1093,0.1099,0.1097,0.113,0.1123,0.1126,0.1133,0.1158,0.116,0.1162,0.1158,0.1177,0.1177,0.1177,0.1177,0.1202,0.1203,0,0,0,0,0,0,0.1029,0.1033,0.1074,0.1077,0.1066,0.1094,0.1099,0.1107,0.1131,0.1136,0.1132,0.1135,0.1159,0.1161,0.1163,0.1215,0.1177,0.1177,0.1177,0.1202,0.1203,0.1203,0,0,0,0,0,0,0.1028,0.1033,0.1073,0.1057,0.1062,0.1094,0.1102,0.1107,0.1135,0.1138,0.1143,0.1158,0.116,0.1162,0.1189,0.1214,0.1177,0.1178,0.1201,0.1202,0.1203,0.1271,0,0,0,0,0,0,0.1026,0.1032,0.1047,0.1057,0.1063,0.1095,0.1101,0.1107,0.1137,0.1142,0.1161,0.1164,0.1161,0.1189,0.1189,0.1213,0.1178,0.1201,0.1202,0.1203,0.1268,0.1274,0.1279,0,0,0,0,0,0.1024,0.1037,0.1047,0.1053,0.108,0.1096,0.11,0.1124,0.1137,0.1153,0.1171,0.1165,0.1195,0.119,0.119,0.1215,0.12,0.1201,0.1203,0.1265,0.1272,0.1279,0,0,0,0,0,0,0.1021,0.1043,0.1054,0.1074,0.1093,0.1104,0.1124,0.1136,0.1161,0.1173,0.1174,0.1178,0.1212,0.1198,0.1192,0.1222,0.1195,0.1196,0.1242,0.1249,0.1254,0.1258,0.1178,0,0,0,0,0,0.1026,0.1045,0.1062,0.1082,0.1093,0.1112,0.1126,0.1142,0.116,0.1173,0.1187,0.1198,0.121,0.122,0.1226,0.1241,0.1239,0.1254,0.126,0.1265,0.1266,0.1286,0.1294,0.1207,0.1207,0.1207,0,0,0.103,0.1046,0.1058,0.1083,0.11,0.1119,0.1124,0.1152,0.1174,0.1171,0.1212,0.1222,0.1219,0.1245,0.1257,0.1241,0.129,0.1266,0.1271,0.1269,0.1289,0.1297,0.1305,0.1208,0.1208,0.1208,0,0,0.1041,0.1064,0.1081,0.1098,0.113,0.114,0.1154,0.1179,0.1202,0.1233,0.1241,0.1267,0.1281,0.1289,0.1291,0.1325,0.1321,0.1328,0.1359,0.138,0.1387,0.1394,0.1413,0.1421,0.1328,0.1328,0.1328,0,0.1047,0.1071,0.1089,0.1109,0.1129,0.1152,0.1174,0.1194,0.1228,0.1248,0.1255,0.1297,0.1299,0.1329,0.1346,0.1339,0.1352,0.1339,0.1389,0.1395,0.1401,0.1419,0.1426,0.1332,0.1331,0.1331,0.1331,0,0.1062,0.1091,0.1104,0.1138,0.1159,0.1184,0.1211,0.1243,0.1272,0.1291,0.134,0.1351,0.1375,0.1381,0.1377,0.1419,0.1417,0.1399,0.1377,0.1414,0.143,0.1437,0.1336,0.1335,0.1334,0.1333,0,0,0.105,0.1104,0.1112,0.1136,0.1179,0.1197,0.1239,0.1278,0.1312,0.1349,0.1391,0.1421,0.1438,0.1441,0.1446,0.1463,0.152,0.1456,0.1455,0.1483,0.1575,0.1507,0.1508,0.1521,0.1522,0.1523,0.1575,0,0.106,0.1102,0.1127,0.1173,0.1196,0.1234,0.1268,0.1309,0.1348,0.1393,0.1419,0.1459,0.1457,0.1482,0.1503,0.1515,0.1539,0.1507,0.1527,0.1527,0.1469,0.1513,0.1527,0.158,0.1581,0.1583,0.1583,0,0.1062,0.1093,0.1138,0.1196,0.1211,0.1244,0.131,0.1344,0.1405,0.1438,0.1486,0.1508,0.1553,0.1539,0.159,0.1576,0.1585,0.1588,0.159,0.1505,0.1471,0.153,0.1596,0.1595,0.1594,0.1593,0.1592,0,0.1038,0.1099,0.1139,0.1158,0.1224,0.1261,0.1301,0.1364,0.1397,0.1474,0.1507,0.1562,0.1598,0.162,0.1642,0.1625,0.1689,0.1658,0.1606,0.1602,0.1618,0.161,0.1694,0.1694,0.1693,0.1693,0.1693,0,0.1026,0.1061,0.1138,0.1158,0.1208,0.1261,0.1318,0.1367,0.1434,0.1472,0.1533,0.1568,0.1623,0.1662,0.1667,0.1666,0.1714,0.1622,0.1613,0.1646,0.164,0.1624,0.1615,0.1695,0.1695,0.1694,0.1694,0,0.0988,0.104,0.1089,0.1171,0.1199,0.1236,0.1318,0.1354,0.1429,0.1483,0.151,0.159,0.1647,0.169,0.1733,0.1693,0.1697,0.1685,0.1736,0.1728,0.1589,0.1583,0.162,0.1618,0.1617,0.1615,0.1614,0,0.097,0.0994,0.1086,0.1116,0.1158,0.1221,0.126,0.1343,0.1374,0.1482,0.1495,0.1587,0.1633,0.1637,0.1692,0.1711,0.1692,0.1682,0.1615,0.1595,0.1583,0.1579,0.1576,0.1612,0.1611,0.1611,0.161,0,0.0932,0.0976,0.1016,0.1078,0.113,0.1171,0.1233,0.1241,0.1333,0.1417,0.145,0.1486,0.1552,0.1588,0.1628,0.1631,0.1677,0.1664,0.1666,0.1603,0.1585,0.1573,0.1572,0.1605,0.1605,0.1606,0.1606,0,0.0905,0.0921,0.0981,0.1027,0.1085,0.1101,0.1139,0.1178,0.1216,0.1327,0.1342,0.1444,0.1535,0.1549,0.158,0.159,0.1557,0.1495,0.1505,0.1512,0.1454,0.1413,0.1381,0,0,0,0,0,0.0868,0.0882,0.0923,0.0965,0.1019,0.1053,0.1111,0.1148,0.1233,0.1228,0.1278,0.1335,0.139,0.1441,0.1431,0.1537,0.1565,0.1518,0.1497,0.1573,0.1579,0.1523,0,0,0,0,0,0,0.0844,0.0881,0.09,0.0905,0.0923,0.0968,0.1001,0.106,0.105,0.1147,0.118,0.127,0.1339,0.1392,0.1413,0.1431,0.1393,0.1589,0.1586,0.1569,0.1575,0.158,0.1524,0,0,0,0,0]},{"header":{"parameterUnit":"m.s-1","parameterCategory":2,"la1":30.2991,"la2":30.254,"lo1":-89.0895,"lo2":-89.0444,"dy":0.0017,"dx":0.0017,"nx":28,"ny":28,"refTime":"2023-09-18T09:00:00:Z","depth":"4","parameterNumber":3,"parameterNumberName":"V-component_of_CURRENTS"},"data":[0,0,0,0,0,0,0,0,0,0,0,0,0,0,0,0,0,0,0,0,0,0,0,0,0,0,0,0,0,0,0,0,0,0,0,0,0,0,0,0,0,0,0,0,0,0,0,0,0,0,0,0,0,0,0,0,0,0,-0.0036,-0.0037,0,-0.0086,-0.0087,-0.0087,-0.0118,-0.0118,-0.0118,-0.0118,-0.0184,-0.0185,-0.0187,0,0,0,0,0,0,0,0,0,0,0,0,0,0.0001,0.0,-0.0036,-0.0037,-0.0037,-0.0086,-0.0087,-0.0088,-0.0118,-0.0118,-0.0118,-0.0118,-0.0183,-0.0185,-0.0187,0,0,0,0,0,0,0,0,0,0,0,0,0,-0.0029,0.0,-0.0036,-0.0058,-0.006,-0.0086,-0.0087,-0.0088,-0.0118,-0.0118,-0.0118,-0.0118,-0.0183,-0.0185,-0.0187,-0.02,0,0,-0.0195,-0.0196,0,0,0,0,0,0,0,0,-0.0027,-0.0031,-0.0054,-0.0056,-0.0059,-0.0095,-0.0098,-0.0126,-0.0118,-0.0096,-0.0118,-0.0118,-0.0155,-0.016,-0.017,-0.0203,-0.0206,-0.0195,-0.0197,-0.0198,-0.0199,0,0,0,0,0,0,0,-0.0025,-0.0029,-0.0057,-0.0055,-0.0058,-0.0076,-0.008,-0.0103,-0.0125,-0.0098,-0.0101,-0.0105,-0.0157,-0.0167,-0.0171,-0.0207,-0.0195,-0.0197,-0.0199,-0.02,-0.0245,-0.0244,0,0,0,0,0,0,-0.0016,-0.0027,-0.0055,-0.0058,-0.0043,-0.0076,-0.0081,-0.0084,-0.0125,-0.0131,-0.0105,-0.0106,-0.0163,-0.0168,-0.0174,-0.0189,-0.0198,-0.02,-0.0202,-0.0245,-0.0245,-0.0244,0,0,0,0,0,0,-0.0015,-0.0018,-0.0053,-0.0043,-0.0049,-0.0077,-0.008,-0.0085,-0.0098,-0.0129,-0.0136,-0.0113,-0.0163,-0.017,-0.0197,-0.0192,-0.0201,-0.0204,-0.0245,-0.0245,-0.0244,-0.0221,0,0,0,0,0,0,-0.0014,-0.0017,-0.0018,-0.0042,-0.0049,-0.0067,-0.008,-0.0086,-0.01,-0.0103,-0.0138,-0.0144,-0.0164,-0.0193,-0.0199,-0.0196,-0.0205,-0.0246,-0.0245,-0.0245,-0.0222,-0.022,-0.0218,0,0,0,0,0,-0.0012,-0.0012,-0.0017,-0.0021,-0.0048,-0.0067,-0.0072,-0.0093,-0.01,-0.0105,-0.013,-0.0143,-0.0193,-0.0195,-0.0203,-0.0199,-0.0246,-0.0245,-0.0245,-0.0223,-0.0221,-0.0218,0,0,0,0,0,0,0.0003,-0.0015,-0.0022,-0.0027,-0.0044,-0.0072,-0.0078,-0.0092,-0.0116,-0.0118,-0.0148,-0.0156,-0.0176,-0.019,-0.0191,-0.0209,-0.0218,-0.0219,-0.02,-0.0197,-0.0195,-0.0183,-0.0208,0,0,0,0,0,0.0007,0.0004,-0.0017,-0.0021,-0.0028,-0.0053,-0.0064,-0.0077,-0.01,-0.0111,-0.0136,-0.0158,-0.0179,-0.019,-0.0211,-0.0225,-0.0235,-0.0225,-0.0222,-0.022,-0.0215,-0.0226,-0.0224,-0.0242,-0.0242,-0.0242,0,0,0.0012,0.0002,-0.0,-0.0018,-0.0033,-0.004,-0.006,-0.0074,-0.0079,-0.0114,-0.0131,-0.0156,-0.0182,-0.0197,-0.0206,-0.0209,-0.0221,-0.022,-0.0218,-0.0213,-0.0225,-0.0223,-0.0222,-0.0241,-0.0242,-0.0242,0,0,0.0021,0.0012,0.0012,0.0001,-0.0017,-0.0031,-0.0034,-0.006,-0.0072,-0.0091,-0.0115,-0.0137,-0.0169,-0.0185,-0.0197,-0.0195,-0.0212,-0.0199,-0.0178,-0.0189,-0.0187,-0.0186,-0.0198,-0.0198,-0.0194,-0.0194,-0.0194,0,0.0028,0.0027,0.0009,0.0007,0.0002,-0.0024,-0.0024,-0.004,-0.0071,-0.0077,-0.0091,-0.0136,-0.0161,-0.0176,-0.0176,-0.019,-0.0199,-0.0187,-0.0186,-0.0185,-0.0184,-0.0197,-0.0197,-0.0193,-0.0193,-0.0193,-0.0194,0,0.0037,0.0036,0.0036,0.0028,0.002,0.0015,-0.0004,-0.0015,-0.0031,-0.0047,-0.0069,-0.0106,-0.0128,-0.014,-0.016,-0.0165,-0.0175,-0.0185,-0.0192,-0.0181,-0.0195,-0.0196,-0.0191,-0.0192,-0.0192,-0.0193,0,0,0.0053,0.0045,0.0045,0.005,0.0032,0.003,0.0023,0.0011,0.0014,-0.0021,-0.0022,-0.0064,-0.0083,-0.0097,-0.0125,-0.0139,-0.0148,-0.0157,-0.0158,-0.0168,-0.0173,-0.0188,-0.019,-0.0159,-0.0159,-0.0159,-0.0185,0,0.0066,0.0074,0.0064,0.0074,0.0077,0.006,0.006,0.0048,0.0031,0.0023,-0.0014,-0.0029,-0.0066,-0.0076,-0.0096,-0.0134,-0.0149,-0.014,-0.0182,-0.0183,-0.0198,-0.0191,-0.0158,-0.0186,-0.0186,-0.0186,-0.0186,0,0.0078,0.0083,0.0096,0.0105,0.0106,0.0109,0.0112,0.0107,0.0088,0.0076,0.0052,0.0024,-0.0005,-0.0035,-0.0092,-0.0085,-0.0124,-0.0156,-0.0158,-0.0179,-0.02,-0.0199,-0.0188,-0.0188,-0.0188,-0.0188,-0.0188,0,0.0101,0.0107,0.0122,0.0123,0.0126,0.0134,0.0134,0.0123,0.013,0.011,0.0117,0.007,0.0056,-0.0001,-0.0073,-0.0079,-0.0135,-0.015,-0.0201,-0.0203,-0.0192,-0.0193,-0.0185,-0.0185,-0.0185,-0.0185,-0.0185,0,0.0118,0.013,0.0136,0.0145,0.0171,0.0161,0.0183,0.0177,0.0176,0.0195,0.0148,0.0151,0.0065,0.002,-0.0052,-0.0129,-0.0118,-0.0195,-0.0209,-0.0182,-0.0182,-0.0193,-0.0194,-0.0186,-0.0186,-0.0186,-0.0185,0,0.0136,0.0138,0.016,0.0173,0.0181,0.0198,0.0219,0.0237,0.0231,0.0255,0.0254,0.0215,0.0155,0.0063,-0.0028,-0.0094,-0.0172,-0.0203,-0.0164,-0.0177,-0.0238,-0.0237,-0.0256,-0.0257,-0.0257,-0.0258,-0.0258,0,0.0145,0.0157,0.0184,0.0204,0.0212,0.0235,0.0257,0.0261,0.0282,0.0296,0.0315,0.0267,0.0228,0.0094,-0.0015,-0.0155,-0.0181,-0.0221,-0.0235,-0.0232,-0.0244,-0.0242,-0.024,-0.0259,-0.0259,-0.026,-0.026,0,0.0165,0.0175,0.0195,0.0233,0.0262,0.0296,0.0326,0.0347,0.0362,0.0366,0.037,0.0298,0.0228,0.0104,-0.0009,-0.0111,-0.0196,-0.0228,-0.0227,-0.0241,-0.0236,-0.0247,-0.0245,-0.0262,-0.0262,-0.0261,-0.0261,0,0.0182,0.02,0.0227,0.0261,0.0303,0.0345,0.0356,0.0384,0.0402,0.0416,0.0417,0.0336,0.0288,0.0127,0.0025,-0.0082,-0.0113,-0.015,-0.0154,-0.0154,-0.0126,-0.0106,-0.0098,0,0,0,0,0,0.0195,0.0217,0.0253,0.0292,0.0335,0.036,0.0402,0.041,0.043,0.0442,0.043,0.0363,0.0215,0.0149,0.0041,-0.0003,-0.0143,-0.0135,-0.0191,-0.0273,-0.0271,-0.0259,0,0,0,0,0,0,0.0204,0.0237,0.0254,0.0313,0.0345,0.0395,0.0423,0.0436,0.0436,0.0442,0.0365,0.0334,0.0184,0.0282,0.0041,0.0007,-0.0045,-0.0204,-0.0206,-0.0275,-0.0273,-0.0271,-0.0258,0,0,0,0,0]}]]